Temp
-4 -4 -4 -4 -4 -4 -5 -5 -5 -5 -4 -4 -4 -4 -4 -5 -5 -5 -5 -6 -6 -6 -6 -6 -6 -6 -7 -7 -7 -7 -8 -8 -8 -8 -8 -8 -8 -8 -8 -8 -8 -8 -9 -8 -8 -8 -8 -8 -8
-4 -4 -4 -4 -4 -4 -4 -4 -5 -5 -4 -4 -4 -4 -4 -4 -4 -5 -6 -6 -6 -6 -6 -6 -6 -7 -7 -7 -7 -8 -8 -8 -8 -8 -8 -8 -8 -8 -8 -8 -8 -8 -9 -9 -8 -8 -8 -8 -8
-4 -4 -4 -4 -4 -4 -4 -5 -5 -4 -5 -4 -5 -5 -4 -5 -5 -5 -5 -6 -6 -6 -6 -6 -7 -7 -7 -7 -7 -8 -8 -8 -8 -8 -8 -8 -8 -8 -8 -8 -8 -8 -9 -9 -9 -8 -8 -8 -8
-4 -4 -4 -4 -4 -4 -4 -5 -5 -5 -5 -4 -4 -5 -4 -5 -5 -5 -5 -6 -6 -6 -6 -6 -7 -7 -7 -7 -7 -7 -7 -8 -8 -8 -8 -7 -7 -8 -7 -7 -7 -8 -9 -9 -9 -8 -8 -8 -9
-4 -4 -4 -4 -4 -4 -5 -5 -5 -5 -4 -4 -4 -4 -5 -5 -5 -6 -5 -6 -6 -6 -6 -6 -6 -7 -6 -7 -7 -7 -8 -8 -8 -8 -7 -7 -7 -8 -8 -7 -7 -8 -9 -9 -9 -8 -8 -8 -8
-4 -4 -4 -4 -4 -5 -5 -5 -5 -4 -4 -4 -4 -4 -5 -5 -5 -6 -6 -6 -6 -6 -6 -6 -6 -6 -6 -7 -7 -7 -7 -7 -7 -7 -7 -7 -8 -8 -8 -8 -8 -8 -9 -9 -9 -8 -8 -8 -8
-4 -4 -4 -4 -5 -5 -5 -5 -5 -4 -5 -4 -4 -5 -5 -5 -5 -6 -6 -5 -6 -6 -6 -6 -6 -6 -7 -7 -8 -7 -7 -7 -7 -7 -7 -8 -8 -8 -8 -8 -8 -8 -8 -9 -9 -8 -8 -8 -8
-4 -4 -3 -5 -5 -3 -5 -5 -4 -4 -5 -5 -4 -4 -4 -5 -5 -6 -6 -5 -6 -6 -6 -6 -6 -6 -7 -7 -7 -7 -7 -7 -7 -7 -7 -8 -8 -8 -8 -8 -8 -8 -8 -8 -9 -8 -8 -8 -8
-4 -4 -4 -4 -4 -3 -5 -4 -3 -4 -4 -4 -4 -4 -4 -5 -5 -5 -6 -6 -6 -6 -6 -6 -6 -6 -7 -7 -7 -7 -7 -7 -7 -8 -8 -8 -8 -8 -8 -8 -8 -8 -8 -8 -8 -8 -8 -8 -8
-5 -4 -4 -3 -4 -5 -4 -4 -5 -4 -4 -4 -4 -4 -5 -5 -5 -5 -6 -6 -6 -6 -6 -6 -6 -6 -6 -7 -7 -7 -6 -7 -7 -8 -8 -8 -8 -8 -8 -8 -8 -8 -8 -8 -8 -8 -7 -8 -8
-4 -4 -4 -5 -4 -4 -4 -5 -5 -4 -4 -4 -4 -5 -5 -5 -5 -4 -5 -6 -6 -6 -6 -6 -6 -6 -6 -6 -6 -7 -7 -7 -7 -8 -8 -8 -8 -8 -8 -8 -8 -8 -8 -8 -8 -8 -7 -7 -7
-4 -4 -5 -5 -4 -4 -5 -5 -5 -4 -4 -5 -4 -5 -5 -5 -5 -4 -5 -5 -5 -6 -6 -6 -6 -6 -6 -6 -6 -6 -7 -7 -7 -8 -8 -8 -8 -8 -8 -8 -8 -8 -8 -8 -8 -8 -8 -7 -7
-4 -5 -4 -5 -5 -5 -5 -5 -5 -4 -5 -4 -4 -5 -5 -5 -5 -4 -5 -5 -5 -6 -6 -6 -6 -6 -6 -6 -6 -6 -7 -7 -7 -8 -8 -8 -8 -8 -8 -8 -8 -8 -8 -8 -8 -8 -8 -7 -7
-5 -5 -5 -5 -5 -5 -5 -5 -5 -4 -4 -5 -5 -5 -5 -5 -5 -5 -5 -5 -5 -6 -6 -6 -6 -6 -6 -6 -6 -6 -7 -7 -7 -8 -8 -8 -8 -8 -8 -8 -8 -8 -9 -8 -8 -8 -7 -7 -7
-4 -4 -5 -5 -5 -5 -5 -6 -5 -4 -5 -5 -5 -5 -5 -5 -5 -5 -5 -5 -5 -5 -5 -5 -6 -6 -6 -6 -6 -6 -7 -7 -7 -8 -7 -7 -7 -7 -7 -8 -8 -8 -7 -8 -7 -8 -8 -7 -6
-5 -5 -4 -5 -5 -5 -5 -5 -5 -5 -5 -5 -5 -5 -5 -6 -6 -5 -5 -5 -5 -5 -5 -5 -5 -5 -5 -5 -6 -6 -6 -6 -7 -7 -7 -7 -7 -7 -7 -7 -7 -8 -8 -8 -8 -7 -8 -7 -7
-6 -5 -5 -5 -5 -5 -5 -7 -5 -5 -5 -5 -5 -5 -6 -6 -6 -5 -5 -5 -5 -5 -5 -5 -5 -5 -5 -5 -6 -6 -6 -6 -6 -6 -7 -6 -6 -7 -7 -7 -7 -7 -7 -7 -7 -7 -7 -7 -7
-6 -6 -6 -5 -5 -5 -5 -6 -5 -4 -5 -5 -4 -5 -6 -6 -6 -6 -6 -6 -5 -5 -5 -4 -4 -5 -5 -5 -5 -6 -6 -6 -6 -6 -6 -6 -6 -6 -6 -6 -6 -6 -6 -7 -7 -7 -7 -7 -7
-8 -7 -7 -8 -8 -6 -6 -8 -5 -6 -5 -4 -4 -5 -6 -6 -6 -6 -6 -6 -5 -5 -5 -4 -4 -5 -5 -5 -5 -5 -6 -6 -6 -6 -6 -6 -6 -6 -6 -6 -6 -6 -6 -6 -6 -7 -7 -7 -7
-7 -6 -7 -8 -8 -8 -8 -7 -6 -5 -5 -4 -4 -4 -5 -5 -5 -5 -6 -6 -5 -5 -5 -4 -4 -5 -5 -5 -5 -5 -5 -6 -6 -5 -5 -5 -5 -5 -5 -5 -5 -6 -6 -6 -6 -6 -7 -7 -7
-7 -7 -7 -7 -9 -8 -9 -8 -6 -6 -7 -6 -4 -4 -4 -4 -5 -5 -5 -5 -5 -5 -5 -5 -5 -5 -5 -5 -5 -5 -5 -5 -5 -5 -5 -5 -5 -5 -5 -5 -5 -5 -5 -5 -6 -6 -6 -7 -7
-7 -7 -7 -7 -9 -7 -7 -8 -8 -8 -6 -6 -5 -5 -5 -5 -5 -4 -5 -5 -5 -5 -5 -5 -5 -5 -5 -5 -4 -5 -5 -5 -5 -5 -5 -5 -5 -5 -5 -5 -5 -6 -5 -5 -5 -5 -6 -6 -7
-7 -8 -8 -7 -6 -10 -9 -8 -8 -8 -6 -5 -5 -5 -5 -5 -6 -5 -5 -5 -5 -5 -5 -5 -5 -5 -4 -5 -5 -5 -5 -4 -5 -5 -5 -5 -5 -5 -5 -5 -5 -6 -6 -6 -5 -5 -6 -6 -6
-7 -8 -8 -8 -7 -8 -6 -9 -8 -7 -7 -6 -5 -5 -6 -6 -6 -6 -6 -5 -5 -5 -4 -4 -4 -4 -4 -5 -5 -5 -4 -4 -4 -5 -5 -5 -5 -5 -5 -5 -5 -5 -6 -6 -6 -6 -6 -6 -6
-8 -9 -8 -8 -8 -6 -6 -7 -8 -8 -7 -7 -6 -6 -6 -6 -6 -6 -6 -5 -5 -5 -5 -4 -4 -4 -4 -4 -5 -5 -5 -4 -4 -4 -5 -5 -5 -5 -5 -5 -6 -6 -6 -6 -6 -5 -6 -6 -6
-8 -9 -8 -10 -9 -6 -7 -8 -7 -8 -7 -5 -5 -7 -6 -6 -6 -5 -6 -6 -5 -5 -4 -4 -5 -4 -4 -4 -5 -5 -5 -4 -5 -5 -5 -5 -5 -5 -5 -5 -6 -6 -6 -6 -6 -6 -6 -6 -6
-10 -10 -9 -11 -9 -9 -8 -7 -9 -7 -9 -6 -5 -8 -6 -6 -6 -5 -6 -5 -6 -5 -5 -4 -4 -5 -4 -4 -4 -5 -5 -5 -5 -5 -4 -4 -5 -5 -5 -5 -6 -6 -6 -6 -6 -6 -6 -6 -6
-13 -12 -11 -11 -11 -9 -8 -8 -8 -8 -8 -9 -6 -6 -7 -7 -6 -6 -6 -5 -6 -6 -5 -5 -4 -4 -4 -4 -4 -4 -4 -5 -5 -5 -4 -4 -5 -5 -5 -5 -6 -6 -6 -6 -6 -6 -6 -6 -6
-12 -11 -12 -12 -12 -10 -9 -8 -9 -9 -8 -8 -8 -6 -7 -7 -6 -6 -6 -6 -6 -6 -5 -5 -5 -5 -4 -4 -4 -4 -4 -4 -5 -4 -5 -5 -4 -5 -5 -5 -6 -6 -6 -6 -6 -6 -6 -6 -6
-15 -14 -13 -13 -12 -11 -10 -9 -9 -9 -10 -9 -7 -9 -7 -7 -7 -8 -6 -7 -6 -5 -5 -5 -5 -4 -4 -5 -4 -4 -5 -4 -5 -4 -5 -4 -5 -5 -5 -5 -5 -6 -6 -6 -6 -6 -6 -6 -6
Height
5890 5890 5891 5891 5895 5893 5892 5892 5892 5892 5892 5894 5895 5895 5895 5895 5896 5898 5896 5896 5896 5896 5897 5898 5899 5899 5899 5900 5901 5902 5902 5902 5902 5902 5902 5901 5900 5900 5899 5898 5898 5897 5897 5897 5897 5897 5898 5899 5899
5891 5891 5892 5893 5895 5893 5893 5892 5892 5893 5894 5894 5898 5897 5896 5896 5897 5898 5898 5897 5898 5898 5898 5899 5900 5901 5901 5903 5903 5904 5904 5904 5904 5903 5903 5902 5902 5901 5900 5900 5899 5898 5899 5899 5900 5900 5900 5900 5901
5891 5892 5893 5894 5894 5892 5893 5891 5892 5895 5895 5896 5899 5898 5899 5898 5899 5899 5898 5899 5899 5900 5900 5900 5901 5902 5903 5904 5905 5906 5906 5906 5905 5905 5904 5903 5903 5903 5901 5900 5899 5898 5899 5900 5901 5902 5902 5902 5903
5892 5893 5894 5895 5894 5894 5894 5893 5895 5896 5897 5898 5900 5899 5900 5900 5900 5900 5899 5899 5900 5902 5902 5902 5903 5904 5905 5905 5907 5908 5908 5907 5907 5907 5906 5906 5906 5904 5904 5902 5899 5898 5899 5901 5903 5904 5904 5904 5904
5892 5893 5893 5894 5894 5894 5894 5892 5896 5897 5899 5900 5900 5901 5901 5901 5901 5900 5900 5900 5901 5902 5904 5904 5905 5906 5906 5907 5908 5909 5909 5909 5909 5909 5910 5909 5908 5908 5907 5905 5903 5901 5902 5904 5906 5907 5907 5908 5908
5893 5893 5894 5893 5893 5894 5896 5897 5898 5899 5901 5901 5902 5902 5902 5902 5902 5902 5902 5903 5902 5904 5905 5906 5907 5908 5908 5909 5910 5911 5912 5912 5912 5913 5913 5913 5912 5911 5911 5909 5907 5907 5907 5908 5909 5909 5910 5911 5912
5892 5894 5894 5893 5893 5894 5896 5897 5898 5900 5901 5902 5903 5903 5904 5903 5903 5903 5903 5903 5904 5905 5906 5908 5908 5910 5910 5911 5912 5914 5915 5915 5915 5916 5917 5916 5915 5914 5914 5912 5911 5911 5911 5911 5912 5913 5914 5915 5915
5892 5894 5894 5895 5895 5897 5896 5898 5899 5900 5902 5902 5903 5904 5905 5905 5905 5905 5905 5905 5906 5907 5908 5909 5911 5911 5912 5913 5914 5917 5918 5918 5918 5918 5918 5918 5917 5916 5916 5915 5915 5914 5914 5916 5916 5916 5916 5917 5919
5891 5893 5894 5894 5896 5893 5896 5898 5899 5885 5900 5902 5903 5904 5905 5905 5905 5906 5907 5908 5908 5909 5911 5911 5913 5913 5915 5916 5917 5919 5921 5920 5921 5921 5920 5920 5919 5918 5919 5919 5918 5918 5918 5919 5918 5918 5920 5921 5921
5890 5892 5889 5893 5889 5873 5893 5896 5898 5901 5901 5901 5903 5904 5905 5905 5905 5906 5907 5909 5909 5910 5912 5913 5915 5916 5917 5918 5920 5922 5923 5924 5924 5924 5923 5923 5921 5920 5922 5922 5921 5921 5920 5921 5921 5922 5921 5904 5925
5888 5888 5878 5887 5893 5893 5896 5900 5899 5901 5898 5899 5902 5904 5904 5905 5906 5906 5907 5909 5909 5911 5913 5915 5917 5918 5920 5921 5922 5924 5925 5926 5926 5926 5925 5924 5923 5922 5924 5923 5923 5924 5923 5924 5924 5926 5917 5925 5927
5886 5887 5887 5891 5893 5894 5896 5898 5900 5898 5868 5896 5900 5903 5904 5905 5906 5907 5908 5910 5911 5913 5914 5916 5918 5920 5921 5923 5924 5926 5927 5928 5928 5928 5927 5926 5926 5925 5926 5926 5925 5925 5925 5925 5926 5927 5928 5928 5927
5883 5887 5889 5890 5892 5895 5898 5892 5898 5899 5896 5898 5901 5903 5904 5905 5906 5907 5908 5910 5912 5913 5915 5917 5919 5922 5923 5924 5926 5928 5929 5930 5931 5931 5930 5929 5927 5927 5928 5928 5927 5926 5926 5927 5928 5929 5930 5930 5930
5880 5884 5888 5890 5892 5894 5895 5897 5898 5898 5899 5899 5900 5902 5903 5905 5907 5908 5909 5910 5912 5914 5916 5918 5920 5922 5924 5926 5928 5929 5930 5932 5932 5932 5931 5931 5931 5930 5930 5930 5929 5928 5930 5930 5931 5931 5932 5931 5931
5879 5883 5886 5888 5890 5892 5893 5894 5897 5896 5897 5897 5898 5900 5902 5905 5906 5907 5909 5910 5912 5915 5917 5918 5921 5923 5925 5927 5929 5930 5931 5932 5934 5933 5932 5933 5934 5933 5932 5932 5931 5931 5930 5931 5931 5932 5934 5933 5930
5876 5880 5883 5886 5888 5890 5892 5894 5894 5894 5895 5895 5896 5898 5900 5903 5905 5907 5909 5911 5913 5915 5917 5920 5922 5924 5926 5928 5930 5932 5933 5934 5935 5934 5933 5935 5936 5936 5935 5934 5934 5933 5933 5934 5934 5935 5935 5935 5936
5870 5877 5881 5884 5885 5887 5889 5888 5886 5885 5892 5894 5893 5895 5899 5901 5903 5906 5908 5911 5913 5915 5918 5920 5923 5925 5927 5929 5932 5933 5934 5935 5936 5937 5936 5937 5938 5938 5938 5937 5937 5937 5937 5937 5937 5937 5937 5938 5937
5867 5874 5877 5880 5881 5883 5884 5883 5881 5880 5890 5892 5891 5893 5897 5899 5902 5904 5907 5911 5913 5915 5918 5920 5923 5926 5928 5930 5932 5934 5935 5937 5938 5939 5939 5939 5940 5941 5941 5941 5940 5939 5940 5939 5940 5939 5941 5941 5941
5860 5866 5872 5876 5879 5878 5880 5884 5874 5869 5887 5890 5889 5891 5895 5898 5900 5902 5905 5908 5912 5915 5918 5921 5924 5927 5929 5931 5932 5935 5937 5939 5940 5942 5942 5942 5943 5943 5943 5945 5943 5942 5942 5943 5942 5943 5943 5944 5944
5852 5858 5864 5870 5872 5874 5876 5877 5876 5880 5885 5888 5888 5890 5893 5895 5898 5901 5904 5907 5910 5914 5917 5921 5924 5927 5929 5930 5933 5935 5938 5940 5942 5944 5945 5945 5945 5945 5945 5946 5947 5947 5946 5946 5945 5946 5946 5946 5948
5846 5853 5858 5863 5866 5869 5873 5874 5874 5873 5876 5881 5886 5888 5891 5894 5896 5899 5902 5905 5908 5913 5916 5920 5923 5926 5928 5930 5933 5936 5939 5941 5942 5944 5946 5946 5947 5947 5947 5948 5950 5949 5949 5949 5948 5947 5948 5949 5949
5840 5846 5850 5854 5859 5863 5865 5871 5874 5865 5861 5876 5882 5885 5889 5893 5895 5897 5899 5903 5907 5910 5913 5918 5921 5925 5928 5930 5933 5936 5938 5941 5943 5945 5947 5948 5949 5950 5950 5950 5951 5952 5951 5951 5951 5950 5949 5951 5951
5834 5838 5842 5847 5850 5856 5861 5862 5872 5871 5867 5873 5878 5882 5886 5890 5893 5895 5898 5901 5903 5906 5910 5914 5919 5923 5926 5930 5932 5935 5938 5941 5944 5946 5947 5949 5950 5951 5951 5951 5953 5953 5953 5953 5953 5953 5952 5952 5952
5826 5828 5832 5839 5843 5842 5852 5859 5865 5866 5867 5870 5874 5879 5883 5887 5890 5892 5894 5896 5900 5903 5907 5912 5917 5921 5925 5928 5932 5934 5937 5940 5943 5946 5948 5950 5951 5952 5953 5953 5954 5955 5955 5955 5955 5954 5954 5954 5954
5816 5819 5825 5829 5831 5837 5848 5850 5863 5869 5865 5869 5872 5875 5879 5883 5886 5888 5890 5894 5896 5901 5906 5910 5915 5919 5923 5927 5930 5933 5936 5939 5941 5944 5948 5950 5951 5952 5953 5954 5955 5955 5956 5956 5956 5956 5956 5956 5956
5805 5811 5817 5822 5830 5837 5841 5839 5848 5860 5859 5857 5869 5871 5875 5877 5881 5885 5888 5891 5893 5896 5901 5907 5913 5916 5920 5925 5928 5931 5934 5937 5940 5943 5946 5949 5951 5952 5953 5953 5955 5956 5956 5957 5958 5958 5958 5958 5958
5796 5796 5813 5821 5829 5833 5838 5839 5844 5851 5852 5857 5861 5866 5869 5872 5877 5881 5884 5887 5890 5892 5896 5903 5908 5913 5917 5921 5925 5929 5932 5936 5939 5942 5944 5947 5949 5951 5952 5953 5954 5955 5957 5958 5959 5959 5959 5960 5959
5781 5797 5800 5803 5814 5822 5832 5837 5835 5840 5844 5849 5856 5859 5865 5869 5873 5876 5880 5883 5887 5888 5891 5896 5902 5907 5912 5917 5921 5926 5930 5933 5936 5939 5943 5946 5948 5950 5952 5953 5954 5956 5957 5959 5960 5960 5961 5961 5961
5772 5778 5783 5798 5804 5814 5824 5832 5836 5834 5836 5842 5848 5855 5861 5866 5869 5871 5875 5879 5882 5884 5886 5891 5896 5902 5908 5913 5918 5922 5927 5931 5933 5937 5941 5943 5946 5948 5950 5951 5953 5955 5957 5958 5959 5960 5961 5962 5962
5759 5770 5776 5784 5795 5804 5818 5828 5829 5832 5832 5833 5840 5848 5854 5859 5865 5867 5870 5874 5878 5881 5883 5887 5891 5896 5903 5909 5913 5918 5922 5927 5930 5935 5939 5942 5944 5946 5948 5950 5952 5954 5956 5957 5959 5960 5961 5962 5963
Wind_Speed
6 8 11 12 11 8 8 9 8 4 7 13 13 16 15 14 10 10 9 10 9 10 12 15 16 16 16 16 15 14 13 12 11 11 11 10 10 9 7 5 4 4 4 4 6 7 8 9 11
5 7 8 7 4 3 6 11 16 7 9 16 16 13 11 12 9 10 10 9 9 11 13 15 15 16 15 15 14 13 11 11 11 10 11 10 9 8 8 6 3 3 5 6 6 6 7 7 9
5 6 4 4 3 3 1 13 20 10 13 15 16 12 9 10 8 6 11 11 10 10 13 15 14 14 14 14 13 11 11 11 11 9 10 11 11 11 11 10 8 4 7 9 9 9 10 10 10
4 4 3 3 4 5 7 16 14 11 11 13 10 10 8 7 6 6 10 12 13 12 12 14 13 12 13 13 12 11 10 9 10 10 11 13 14 15 16 15 12 9 12 13 13 12 12 10 7
4 4 3 3 6 8 7 15 13 10 9 11 11 9 6 7 7 6 10 13 14 13 13 13 14 12 13 12 12 11 9 9 10 11 13 15 15 15 17 19 19 18 17 16 14 12 12 11 21
5 4 6 7 9 14 13 13 13 12 10 8 8 7 7 6 8 6 8 12 14 14 13 14 14 12 13 12 11 10 9 8 9 12 13 14 13 14 18 20 22 21 19 16 14 14 13 12 11
6 5 3 4 6 10 15 15 10 11 9 7 6 8 7 5 6 8 8 12 13 13 13 13 14 13 13 12 10 9 9 10 11 10 10 10 11 13 16 17 19 19 17 15 13 12 12 12 12
8 10 4 5 7 14 12 14 11 11 9 6 5 6 9 7 6 8 9 12 14 14 13 14 13 13 12 11 10 10 10 10 8 7 7 7 9 12 15 13 15 16 16 16 15 14 13 11 10
9 14 13 13 11 6 14 14 10 12 6 5 5 7 10 8 8 9 9 11 13 14 13 14 13 13 12 11 11 11 10 9 8 7 8 7 7 9 11 11 12 13 13 15 14 13 14 12 11
15 15 15 5 18 26 12 13 10 9 6 5 6 9 11 11 11 13 13 14 16 16 14 14 12 12 12 12 11 11 11 9 9 9 9 11 13 12 11 10 10 11 10 11 12 13 12 15 8
18 17 11 16 14 11 9 8 5 7 7 6 8 11 13 13 12 14 17 18 18 17 16 14 13 13 13 13 12 12 10 10 9 7 8 9 10 11 9 8 8 9 8 10 11 12 13 11 7
19 20 22 11 11 8 8 8 4 7 11 4 7 10 14 15 12 13 17 16 17 18 18 17 14 14 13 13 13 12 9 9 9 10 10 10 10 12 14 10 9 8 6 7 8 10 10 9 8
23 25 25 18 10 9 14 8 10 9 8 5 9 11 16 16 14 14 18 18 19 19 19 18 17 15 15 15 14 12 9 7 8 8 11 12 11 12 12 10 9 11 8 4 8 8 9 9 7
27 28 27 20 16 13 11 14 14 12 12 8 10 12 15 17 16 15 18 19 19 20 21 20 19 17 16 14 13 12 10 8 7 8 10 12 12 11 12 11 12 14 13 13 9 10 5 9 9
24 25 24 22 19 18 16 16 17 15 14 11 11 15 15 17 17 16 21 21 21 22 22 21 20 18 17 15 12 12 12 8 8 9 10 12 13 11 11 12 14 15 16 15 15 13 11 9 8
27 26 24 24 23 21 21 18 18 15 16 15 12 17 18 17 20 18 19 22 22 22 22 22 20 19 17 15 14 13 12 10 9 8 9 11 12 11 11 13 14 13 14 14 13 11 12 12 13
32 28 24 24 26 24 23 21 32 19 16 15 13 18 20 22 22 19 17 22 23 24 23 23 21 20 18 15 12 12 14 13 10 9 9 11 12 12 10 14 13 13 13 14 13 9 12 13 14
29 28 29 26 28 26 26 25 31 10 16 16 14 18 21 23 22 21 19 21 23 23 24 24 22 20 18 15 13 13 16 14 12 12 11 10 13 12 11 13 14 15 14 14 12 11 9 7 11
26 28 31 27 27 28 28 26 31 15 22 20 14 17 21 23 24 23 22 21 23 23 24 24 23 20 19 16 15 15 16 16 14 13 12 11 12 12 11 11 12 12 13 13 13 10 11 9 9
34 31 33 32 29 29 29 28 34 21 25 25 16 19 21 22 21 22 22 22 23 23 24 24 24 23 21 19 17 15 15 15 14 14 14 13 12 12 12 11 9 9 9 10 11 10 11 10 9
38 33 33 36 28 33 27 29 32 38 33 27 26 23 20 18 19 21 22 23 25 24 24 25 26 26 24 21 19 17 16 16 15 14 13 12 11 10 10 10 7 7 7 7 7 6 7 8 9
38 35 37 39 34 33 37 31 33 41 24 23 32 27 23 20 20 20 22 24 26 27 27 28 28 27 26 23 21 19 19 18 17 15 13 12 11 9 9 9 7 6 5 6 7 6 4 5 7
40 39 39 39 44 35 28 38 27 34 36 31 34 28 22 19 17 18 21 25 28 31 30 31 30 30 28 25 22 22 21 19 16 14 14 13 11 10 8 7 5 4 3 3 5 5 4 5 5
44 44 45 42 43 48 44 32 34 31 35 32 34 30 26 23 20 21 24 24 29 32 33 33 32 32 30 27 24 22 22 20 18 15 13 13 11 10 9 7 6 5 4 5 5 6 5 5 4
47 48 46 46 46 49 43 43 32 30 36 29 33 31 30 26 25 24 23 22 24 30 33 33 33 33 31 28 26 24 22 21 21 18 14 12 12 10 9 8 7 7 6 5 5 8 7 6 4
53 52 51 37 39 44 41 43 46 36 23 32 27 36 34 32 29 26 22 19 22 27 31 34 33 35 32 29 28 26 23 21 23 20 16 14 12 11 10 8 8 6 7 6 7 9 9 8 7
49 55 47 33 27 33 29 41 34 45 31 36 42 36 45 37 34 31 27 21 21 24 30 32 35 37 34 33 31 29 26 22 23 22 19 16 14 14 11 8 7 6 6 8 9 10 10 9 9
43 32 47 43 39 34 31 29 33 41 44 42 42 34 37 35 37 36 32 26 22 23 27 32 36 38 38 37 34 31 28 24 25 24 21 18 16 17 14 10 8 7 6 7 9 10 11 11 11
54 57 46 37 41 37 29 29 25 30 41 41 46 45 44 42 36 37 34 28 28 27 28 31 34 39 39 37 36 33 31 28 27 25 23 20 18 18 17 13 12 10 7 6 8 9 10 12 12
37 38 50 39 39 42 33 29 14 26 27 31 42 32 38 38 39 38 37 33 31 25 26 29 33 36 40 39 39 37 35 31 29 25 24 22 19 19 18 16 15 14 12 9 8 10 11 11 12
Wind_Direction
108 94 92 100 127 130 173 181 144 132 145 156 150 137 121 129 132 141 136 136 134 122 117 108 114 118 116 118 116 110 107 102 93 88 83 83 81 76 81 86 106 125 134 125 98 90 98 116 133
125 112 113 120 119 87 204 219 146 136 144 144 153 139 121 128 133 134 123 129 137 133 120 113 118 122 119 116 115 112 103 95 87 88 83 98 81 72 67 65 71 131 153 148 132 111 104 104 130
129 125 140 155 129 217 245 180 146 145 132 144 155 138 125 125 126 136 139 135 131 132 123 118 121 122 118 115 110 104 97 91 90 90 89 83 75 66 63 54 47 108 149 148 142 128 114 106 127
138 122 159 196 224 201 184 157 157 132 125 150 154 149 144 151 139 150 142 141 137 136 128 122 126 123 118 113 104 99 91 91 97 96 92 85 77 70 59 55 59 104 134 137 135 120 115 105 138
146 155 216 246 208 194 193 180 153 131 128 137 151 156 162 158 147 159 154 148 144 137 136 131 131 132 125 117 109 98 90 91 95 97 98 89 80 74 70 66 71 91 111 121 121 116 114 108 117
167 191 230 248 236 226 182 157 158 153 141 136 159 162 167 166 156 153 165 156 149 141 142 133 132 138 126 116 106 99 99 103 104 109 101 89 81 77 69 69 75 85 100 108 109 108 106 110 117
178 195 251 230 173 190 182 164 167 160 156 149 163 169 173 171 173 162 175 161 150 146 145 137 138 138 129 117 115 116 119 119 119 110 101 90 75 71 73 71 76 81 89 98 104 105 102 102 111
197 191 126 177 171 167 194 172 171 168 172 162 162 176 181 179 183 174 177 171 153 151 149 142 142 139 128 125 128 131 120 118 116 100 87 76 71 77 79 76 82 86 89 91 93 96 96 94 102
196 178 192 195 181 204 193 190 172 148 181 182 170 179 194 195 192 178 178 174 157 152 155 146 145 142 140 141 138 130 122 129 111 92 70 61 63 88 86 80 78 85 84 86 90 92 91 87 95
195 190 182 153 208 175 195 215 196 186 190 192 196 191 203 198 206 183 179 175 163 157 159 148 149 145 151 146 141 136 130 127 102 90 71 75 83 88 90 80 88 86 92 95 88 87 77 124 84
198 204 202 178 199 220 222 214 141 165 178 193 211 208 206 206 218 203 184 180 167 162 160 153 150 153 157 150 146 137 137 116 105 92 84 74 87 82 83 86 82 82 86 90 99 105 90 116 95
203 198 200 196 185 182 218 232 200 207 215 171 212 218 216 210 213 211 192 185 172 167 163 157 158 161 161 150 146 140 143 130 119 90 78 78 91 89 89 81 74 78 90 92 96 106 112 114 118
204 197 191 194 196 202 198 223 248 223 267 240 217 221 218 221 211 219 195 189 179 173 168 165 165 166 163 155 147 144 143 140 129 106 80 83 93 90 82 70 61 80 83 106 133 115 99 102 101
215 204 210 217 220 222 204 231 229 250 227 225 222 215 223 221 218 214 202 191 186 180 173 170 170 171 167 164 155 146 139 133 124 108 91 83 86 85 78 67 66 74 83 68 88 105 57 99 104
229 223 215 217 226 232 228 224 234 253 248 229 227 219 221 226 214 216 206 194 189 186 179 174 173 174 172 167 160 144 142 140 115 103 101 97 70 89 77 71 74 75 82 86 97 110 117 110 120
230 229 228 221 227 230 231 233 243 249 259 232 233 228 219 214 213 218 220 199 193 189 183 180 177 176 174 171 163 153 133 136 119 115 99 94 107 93 85 83 82 86 88 91 91 96 104 113 107
229 229 233 234 232 234 233 219 238 219 246 230 230 228 216 210 215 219 223 211 198 193 186 185 183 181 177 175 171 162 158 137 130 129 108 106 109 102 104 97 94 95 97 101 106 103 105 115 120
235 227 230 233 240 230 231 232 254 210 237 229 230 229 218 213 218 221 215 216 208 199 191 189 188 184 180 177 173 166 155 141 140 132 127 115 111 105 104 104 99 99 103 107 111 109 108 118 111
224 222 220 236 227 225 231 233 239 201 242 236 225 228 222 219 219 221 211 207 211 206 197 192 191 189 183 178 178 177 162 148 141 138 138 137 124 118 108 103 105 102 102 110 109 111 103 105 109
230 225 215 213 223 230 230 224 254 244 242 243 221 222 217 220 225 222 214 209 205 208 203 196 194 194 189 183 182 180 174 159 150 150 148 148 135 127 123 113 108 110 107 110 110 117 114 117 112
230 224 221 220 225 226 223 232 236 234 216 225 226 213 224 233 228 223 217 214 208 206 206 199 195 196 196 191 188 184 183 179 165 161 163 154 139 143 138 127 133 119 117 119 112 105 103 99 100
230 226 222 217 215 229 226 228 230 254 220 233 226 216 234 249 249 234 219 214 214 206 208 203 198 201 203 197 194 191 191 192 177 166 166 160 160 165 160 152 152 144 126 133 137 131 112 92 79
224 225 225 221 224 218 221 229 216 250 239 233 223 219 228 239 237 236 233 222 216 214 207 205 204 203 207 205 197 199 197 194 190 184 177 172 170 180 177 171 171 158 145 151 141 146 144 116 104
221 223 226 221 223 228 219 218 224 227 248 239 223 221 227 234 238 233 227 223 224 218 212 208 205 206 207 208 202 203 204 199 194 199 189 186 185 196 197 184 166 175 171 167 162 162 173 144 146
220 222 223 226 224 228 228 218 209 224 242 241 233 219 228 232 232 225 223 226 228 228 222 216 205 208 207 211 207 208 210 205 200 202 199 199 199 204 211 205 193 188 174 171 162 174 165 166 163
218 222 226 226 228 233 228 229 217 196 220 211 217 234 227 229 228 223 226 233 233 230 226 220 214 208 208 209 209 211 213 209 206 203 200 207 207 204 212 205 205 196 179 170 166 172 163 159 167
220 222 220 223 227 235 237 240 229 218 214 209 203 219 236 229 228 229 233 243 235 232 225 223 216 216 213 209 212 214 214 209 210 210 205 206 209 213 216 205 192 192 199 182 180 172 164 162 157
205 218 222 216 218 222 224 231 241 227 222 220 208 204 224 239 233 235 236 245 235 232 227 223 219 218 216 214 213 214 216 210 213 214 208 205 213 218 219 207 185 188 200 194 192 187 172 166 163
220 212 205 219 223 217 217 227 226 248 237 226 227 227 230 233 240 239 237 236 236 228 226 223 219 221 219 215 217 217 217 212 216 215 210 208 213 220 221 210 199 198 209 211 196 204 201 180 176
228 222 221 216 216 219 217 222 211 228 224 234 225 222 225 227 233 237 237 229 234 232 228 225 225 222 222 218 217 219 223 217 217 218 216 214 213 222 225 219 209 210 217 229 225 212 215 209 195